SCP
0 0 0 0 0 0 0 0 0 0 0 0 0 0 0 0 0 0 0 0 0 0 0 0 0 0 0 0 0 0 0 0 0 0 0 0 0 0 0 0 0 0 0
0 0 0 0 0 0 0 0 0 0 0 0 0 0 0 0 0 0 0 0 0 0 0 0 0 0 0 0 0 0 0 0 0 0 0 0 0 0 0 0 0 0 0
0 0 0 0 0 0 0 0 0 0 0 0 0 0 0 0 0 0 0 0 0 0 0 0 0 0 0 0 0 0 0 0 0 0 0 0 0 0 0 0 0 0 0
0 0 0 0 0 0 0 0 0 0 0 0 0 0 0 0 0 0 0 0 0 0 0 0 0 0 0 0 0 0 0 0 0 0 0 0 0 0 0 0 0 0 0
0 0 0 0 0 0 0 0 0 0 0 0 0 0 0 0 0 0 0 0 0 0 0 0 0 0 0 0 0 0 0 0 0 0 0 0 0 0 0 0 0 0 0
0 0 0 0 0 0 0 0 0 0 0 0 0 0 0 0 0 0 0 0 0 0 0 0 0 0 0 0 0 0 0 0 0 0 0 0 0 0 0 0 0 0 0
0 0 0 0 0 0 0 0 0 0 0 0 0 0 0 0 0 0 0 0 0 0 0 0 0 0 0 0 0 0 0 0 0 0 0 0 0 0 0 0 0 0 0
0 0 0 0 0 0 0 0 0 0 0 0 0 0 0 0 0 0 0 0 0 0 0 0 0 0 0 0 0 0 0 0 0 0 0 0 0 0 0 0 0 0 0
0 0 0 0 0 0 0 0 0 0 0 0 0 0 0 0 0 0 0 0 0 0 0 0 0 0 0 0 0 0 0 0 0 0 0 0 0 0 0 0 0 0 0
0 0 0 0 0 0 0 0 0 0 0 0 0 0 0 0 0 0 0 0 0 0 0 0 0 0 0 0 0 0 0 0 0 0 0 0 0 0 0 0 0 0 0
0 0 0 0 0 0 0 0 0 0 0 0 0 0 0 0 0 0 0 0 0 0 0 0 0 0 0 0 0 0 0 0 0 0 0 0 0 0 0 0 0 0 0
0 0 0 0 0 0 0 0 0 0 0 0 0 0 0 0 0 0 0 0 0 0 0 0 0 0 0 0 0 0 0 0 0 0 0 0 0 0 0 0 0 0 0
0 0 0 0 0 0 0 0 0 0 0 0 0 0 0 0 0 0 0 0 0 0 0 0 0 0 0 0 0 0 0 0 0 0 0 0 0 0 0 0 0 0 0
0 0 0 0 0 0 0 0 0 0 0 0 0 0 0 0 0 0 0 0 0 0 0 0 0 0 0 0 0 0 0 0 0 0 0 0 0 0 0 0 0 0 0
0 0 0 0 0 0 0 0 0 0 0 0 0 0 0 0 -0 0 0 0 0 0 0 0 0 0 0 0 0 0 0 0 0 0 0 0 0 0 0 0 0 0 0
0 0 0 0 0 0 0 0 0 0 0 0 0 0 0 0 0 0 0 0 0 0 0 0 0 0 0 0 0 0 0 0 0 0 0 0 0 0 0 0 0 0 0
0 0 0 0 0 0 0 0 0 0 0 0 0 0 0 0 0 0 0 0 0 0 0 0 0 0 0 0 0 0 0 0 0 0 0 0 0 0 0 0 0 0 0
0 0 0 0 0 0 0 0 0 -0 -0 -0 -0 0 0 0 0 0 0 0 0 0 -0 0 0 0 0 0 0 0 0 0 0 0 0 0 0 0 0 0 0 0 0
0 0 0 0 0 0 0 0 0 0 0 -0 0 0 0 0 0 0 0 0 0 -0 -0 0 0 0 0 0 0 0 0 0 0 0 0 0 0 0 0 0 0 0 0
0 0 0 0 0 0 0 0 0 0 0 0 0 0 0 0 0 0 0 0 0 -0 -0 0 0 0 0 0 0 0 0 0 0 0 0 0 0 0 0 0 0 0 0
0 0 0 0 0 0 0 0 0 0 0 0 0 0 0 0 0 0 0 0 0 0 -0 0 0 0 0 0 0 0 0 0 0 0 0 0 0 0 0 0 0 0 0
0 0 0 0 0 0 0 0 0 0 0 0 0 0 0 0 0 0 0 0 0 0 0 0 0 0 0 0 0 0 0 0 0 0 0 0 0 0 0 0 0 0 0
0 0 0 0 0 0 0 0 0 0 0 0 0 0 0 0 0 0 0 0 0 0 0 0 0 0 0 0 0 0 0 0 0 0 0 0 0 0 0 0 0 0 0
0 0 0 0 0 0 0 0 0 0 0 0 0 0 0 0 0 0 0 0 0 0 0 0 0 0 0 0 0 0 0 0 0 0 0 0 0 0 0 0 0 0 0
0 0 0 0 0 0 0 0 0 0 0 0 0 0 0 0 0 0 0 0 0 0 0 0 0 0 0 0 0 0 0 0 0 0 0 0 0 0 0 0 0 0 0
0 0 0 0 0 0 0 0 0 0 0 0 0 0 0 0 0 0 0 0 0 0 0 0 0 0 0 0 0 0 0 0 0 0 0 0 0 0 0 0 0 0 0
Wind_Speed
1 2 2 2 6 7 8 8 9 9 9 9 10 10 10 10 11 11 11 11 11 11 11 12 12 13 13 12 12 12 12 12 12 12 12 11 11 11 12 12 10 6 12
1 1 1 2 6 7 8 8 9 9 9 9 9 9 10 10 10 11 11 11 11 11 11 11 11 12 12 12 12 12 12 12 12 12 12 10 10 10 11 11 11 7 11
1 1 0 3 6 7 8 8 8 8 8 8 9 9 9 9 9 10 10 10 10 10 11 11 11 11 11 11 11 11 11 12 12 12 11 6 6 9 10 10 10 10 10
2 1 1 4 6 7 7 7 8 8 8 8 8 9 8 8 8 9 9 10 10 10 10 11 11 11 11 11 11 11 11 11 12 11 6 5 5 8 9 9 10 10 10
2 2 1 5 6 7 7 7 7 7 8 8 8 8 8 8 9 9 9 9 9 9 10 10 10 11 11 11 11 11 11 11 11 9 6 5 4 8 9 9 10 9 9
2 2 2 5 6 6 7 6 6 7 7 7 7 7 7 8 8 8 8 8 8 9 9 10 10 10 10 11 11 11 10 10 9 5 5 5 4 8 9 9 10 10 9
2 2 2 5 5 6 6 6 6 6 7 7 7 7 8 8 7 7 7 8 8 9 9 9 9 10 10 10 10 10 10 10 6 5 4 4 5 8 9 9 8 9 9
3 3 3 4 5 5 5 5 5 6 6 6 6 7 8 8 8 8 7 7 8 8 9 9 9 9 10 10 10 10 10 9 6 5 4 4 6 8 9 8 8 8 8
3 3 3 2 3 4 5 5 5 5 6 6 6 7 7 7 8 8 8 7 7 8 8 9 9 9 9 9 10 10 10 10 6 4 4 3 7 8 8 8 7 7 7
3 3 3 3 3 2 2 4 5 5 6 6 7 7 8 8 7 8 7 7 7 7 7 8 8 8 8 9 9 9 9 8 5 4 3 4 7 7 7 7 6 6 6
2 2 2 2 2 2 2 3 3 4 5 6 5 7 6 4 4 4 7 7 7 7 7 7 7 8 7 8 8 9 7 3 4 3 3 6 7 6 6 6 6 6 5
1 1 1 1 1 1 1 2 1 2 2 2 3 3 2 3 3 4 6 8 8 7 6 7 7 6 5 3 5 6 3 4 3 3 4 7 7 6 6 6 6 6 5
2 1 0 1 1 1 1 1 1 1 1 1 2 2 2 2 2 3 2 3 4 5 4 4 4 3 3 2 2 2 3 3 2 3 4 8 7 6 6 6 6 6 5
2 2 2 1 1 1 1 1 1 1 1 1 1 2 2 1 2 1 2 2 2 2 3 2 2 2 3 3 2 3 3 2 2 2 4 9 8 7 7 6 6 6 6
3 3 2 2 2 1 1 1 1 1 1 0 0 1 2 2 1 1 1 1 2 2 2 2 2 2 2 2 2 2 2 2 2 2 3 8 9 8 7 7 6 7 7
3 4 3 3 2 2 1 1 1 1 1 0 0 1 2 2 1 1 1 1 1 1 1 1 2 1 1 1 2 2 2 2 2 2 2 4 8 9 8 7 7 8 8
2 2 3 3 2 2 2 2 1 1 1 1 1 1 1 1 2 2 1 0 0 1 1 1 2 2 1 1 1 1 1 1 1 2 2 2 3 7 9 8 8 9 9
2 2 3 3 3 3 2 2 1 1 1 1 1 1 1 1 1 1 1 1 0 1 1 1 1 2 2 1 1 1 1 1 1 1 1 2 2 3 5 8 9 10 10
2 2 3 3 3 3 2 1 1 1 1 1 0 0 0 1 1 1 1 1 1 1 0 0 1 1 1 2 2 1 1 1 1 1 1 2 2 2 2 5 8 9 10
2 2 2 2 2 2 1 0 0 0 1 1 1 1 1 1 1 1 1 1 1 1 1 0 0 1 0 1 2 2 2 2 1 1 1 1 1 2 2 3 3 5 9
2 2 2 2 2 1 1 1 1 1 1 1 1 1 1 1 1 1 1 1 2 2 2 1 0 0 0 1 1 2 2 2 1 2 1 1 1 2 2 2 2 2 4
3 3 3 3 3 2 2 1 1 1 0 1 1 0 0 0 1 1 2 2 2 2 2 2 1 0 0 0 1 1 3 2 1 2 1 1 2 2 2 3 2 2 3
3 4 3 3 2 2 1 1 1 1 1 1 1 1 1 0 1 1 2 2 2 2 2 3 2 2 1 1 0 1 1 3 3 2 2 2 1 2 2 2 3 3 3
5 3 3 2 2 2 2 2 2 2 2 2 1 1 1 1 1 1 1 1 1 1 2 2 2 2 2 1 1 1 1 1 2 3 2 2 2 3 3 3 3 3 3
4 3 2 2 2 2 2 3 3 2 2 1 0 1 1 1 1 1 1 1 2 1 2 2 1 2 2 2 2 1 1 2 2 3 5 3 3 2 3 3 3 3 3
3 2 1 1 2 1 1 2 3 3 2 1 1 1 1 1 1 1 1 1 1 2 2 2 2 1 2 2 2 2 2 2 2 3 4 4 4 3 3 3 3 3 3
Wind_Direction
293 298 306 65 87 86 85 84 82 79 79 79 77 76 75 74 72 70 68 67 68 70 70 68 65 65 62 59 58 59 58 54 52 50 49 50 53 57 61 58 57 53 60
217 260 330 86 96 91 88 86 83 81 80 79 78 76 75 75 74 71 68 66 66 68 68 66 65 65 63 61 60 59 57 53 50 48 46 45 47 54 60 60 58 57 59
106 152 128 93 98 95 91 87 84 82 81 80 79 79 78 78 76 74 70 68 66 66 65 64 63 62 63 62 61 60 58 53 50 47 41 30 35 51 56 57 56 55 57
88 81 87 94 99 96 94 91 86 83 81 79 77 78 79 79 78 75 73 69 68 66 63 61 60 62 63 61 59 59 57 54 50 45 36 24 24 47 54 57 57 57 57
73 50 43 92 102 101 98 94 91 88 84 80 77 77 75 75 76 76 73 70 67 64 61 61 61 62 62 60 59 58 56 53 47 40 27 21 21 44 53 56 56 55 54
68 55 63 89 103 106 102 98 95 91 87 84 81 78 76 74 74 75 73 70 67 64 63 62 60 60 61 60 59 57 55 51 42 31 24 17 19 42 50 54 54 53 52
76 61 69 81 92 99 101 101 97 94 88 83 80 78 74 69 69 71 73 72 69 65 64 62 61 60 60 60 59 57 53 48 42 33 24 18 25 41 46 49 52 52 49
86 65 68 72 82 88 90 91 94 97 89 82 79 77 73 68 64 63 66 70 70 67 64 63 61 60 59 58 56 54 49 46 42 31 19 17 29 41 43 44 46 49 48
71 66 56 57 68 76 83 84 83 84 81 78 77 71 66 63 61 58 58 60 65 67 66 64 61 60 61 59 55 51 47 42 36 22 14 11 27 36 42 42 41 45 45
68 63 56 51 54 58 61 73 76 75 76 75 70 64 59 56 53 51 49 53 56 62 67 66 62 60 59 58 54 49 45 40 27 14 5 12 26 31 36 37 36 38 40
75 60 58 55 56 50 61 64 70 75 76 76 68 65 59 46 44 42 42 47 52 55 62 64 63 62 61 55 50 45 41 31 22 11 358 15 23 25 28 30 30 27 28
134 93 59 64 61 57 62 59 56 77 78 76 76 68 57 49 46 51 44 45 46 48 52 56 58 55 53 45 41 39 33 26 25 6 2 17 20 21 23 23 24 24 23
185 177 147 102 67 73 84 91 63 76 86 82 83 76 71 60 50 45 44 38 37 39 36 38 39 37 37 38 38 35 30 29 18 3 359 10 14 15 14 18 16 14 12
193 201 192 160 137 104 102 126 134 124 111 113 111 98 92 81 62 48 48 37 36 35 31 29 34 37 41 41 40 35 31 28 15 1 1 12 12 10 9 11 10 6 3
205 213 209 188 191 190 156 181 156 157 160 176 131 137 128 124 114 86 62 52 44 44 42 28 27 36 36 35 36 35 26 20 17 13 356 12 13 7 3 360 359 359 357
227 220 213 205 204 196 197 201 198 194 177 169 181 198 159 150 148 139 101 66 50 51 45 45 29 18 24 33 29 22 17 10 12 14 6 2 9 6 359 354 354 353 347
254 248 219 216 213 206 212 214 203 196 189 190 220 202 186 174 168 167 156 138 43 69 70 66 47 32 26 31 17 357 7 6 4 9 3 357 355 2 1 357 351 348 343
261 274 247 223 216 219 221 224 213 203 199 210 214 199 196 202 187 177 172 183 177 114 93 82 61 38 9 339 317 304 312 327 338 351 1 358 355 354 353 356 354 350 343
232 246 261 240 219 223 222 223 210 198 224 228 196 178 202 178 179 200 201 201 170 143 127 115 41 32 4 344 308 282 284 271 279 309 329 346 346 351 353 351 351 347 343
232 232 251 256 239 218 194 141 36 25 313 295 242 226 220 219 188 182 205 197 181 157 158 118 28 13 285 327 313 296 275 257 252 234 263 311 322 339 347 340 339 337 340
238 241 255 257 249 201 192 197 210 250 274 296 283 262 225 223 206 189 184 192 186 190 197 181 154 23 332 8 345 317 291 248 253 240 246 265 295 313 323 326 326 326 325
251 246 246 246 235 216 209 204 209 207 259 268 290 334 290 227 225 195 187 190 194 192 197 192 171 171 256 69 49 326 313 306 280 257 249 242 263 308 309 312 311 315 315
264 251 245 243 237 228 185 107 68 35 349 316 309 310 320 272 214 202 192 190 194 189 207 210 197 191 217 243 151 190 245 276 308 284 251 252 266 285 285 291 289 295 302
263 262 254 236 234 227 177 170 181 205 234 245 248 268 311 299 247 225 200 176 189 199 207 219 203 205 197 228 238 238 244 225 257 301 285 256 267 268 271 284 283 286 287
266 257 251 232 238 229 193 188 190 217 234 243 261 289 294 287 257 237 218 190 192 201 213 207 204 205 208 212 211 212 244 250 223 243 280 293 294 265 262 264 261 269 278
280 270 257 234 253 245 208 194 191 209 218 226 253 254 271 268 259 265 242 202 202 202 209 207 204 200 218 216 223 215 219 231 228 228 257 282 289 286 278 256 254 263 267